| time (UTC) | temp C | wind direction | speed KPH | gust KPH | rain 1hr cm | rain 24hr cm | rain mn cm | humidity % | barometer mb |
| 20260505211547 | 25 | 173 | 9.7 | 24.1 | 0.00 | 0.00 | 0.00 | 39 | 1013.9 |
| 20260505210051 | 25 | 148 | 6.4 | 16.1 | 0.00 | 0.00 | 0.00 | 40 | 1013.9 |
| 20260505204549 | 25 | 213 | 8.0 | 24.1 | 0.00 | 0.00 | 0.00 | 40 | 1014.1 |
| 20260505203050 | 25 | 153 | 9.7 | 22.5 | 0.00 | 0.00 | 0.00 | 39 | 1014.1 |
| 20260505201557 | 25 | 185 | 6.4 | 19.3 | 0.00 | 0.00 | 0.00 | 39 | 1014.4 |
| 20260505200051 | 25 | 167 | 6.4 | 20.9 | 0.00 | 0.00 | 0.00 | 40 | 1014.5 |
| 20260505194608 | 25 | 140 | 6.4 | 22.5 | 0.00 | 0.00 | 0.00 | 40 | 1014.7 |
| 20260505193050 | 25 | 110 | 11.3 | 20.9 | 0.00 | 0.00 | 0.00 | 39 | 1014.9 |
| 20260505191550 | 25 | 115 | 8.0 | 20.9 | 0.00 | 0.00 | 0.00 | 39 | 1015.1 |
| 20260505190057 | 25 | 0 | 8.0 | 17.7 | 0.00 | 0.00 | 0.00 | 39 | 1015.4 |
| 20260505184553 | 25 | 130 | 6.4 | 17.7 | 0.00 | 0.00 | 0.00 | 40 | 1015.7 |
| 20260505183055 | 25 | 229 | 6.4 | 22.5 | 0.00 | 0.00 | 0.00 | 41 | 1015.8 |
| 20260505181558 | 25 | 160 | 4.8 | 17.7 | 0.00 | 0.00 | 0.00 | 41 | 1015.8 |
| 20260505180054 | 24 | 166 | 9.7 | 22.5 | 0.00 | 0.00 | 0.00 | 41 | 1016.2 |
| 20260505174557 | 24 | 252 | 4.8 | 25.7 | 0.00 | 0.00 | 0.00 | 42 | 1016.2 |
| 20260505173057 | 24 | 211 | 9.7 | 17.7 | 0.00 | 0.00 | 0.00 | 42 | 1016.6 |
| 20260505171601 | 23 | 157 | 8.0 | 20.9 | 0.00 | 0.00 | 0.00 | 44 | 1016.8 |
| 20260505170055 | 23 | 154 | 4.8 | 20.9 | 0.00 | 0.00 | 0.00 | 45 | 1016.8 |
| 20260505164617 | 23 | 246 | 8.0 | 22.5 | 0.00 | 0.00 | 0.00 | 46 | 1016.8 |
| 20260505163101 | 22 | 215 | 6.4 | 16.1 | 0.00 | 0.00 | 0.00 | 49 | 1016.7 |
| 20260505161553 | 22 | 189 | 8.0 | 17.7 | 0.00 | 0.00 | 0.00 | 50 | 1017.1 |
| 20260505153052 | 20 | 141 | 8.0 | 14.5 | 0.00 | 0.00 | 0.00 | 54 | 1017.5 |
| 20260505151555 | 20 | 211 | 3.2 | 8.0 | 0.00 | 0.00 | 0.00 | 55 | 1017.6 |
| 20260505130108 | 14 | 0 | 0.0 | 3.2 | 0.00 | 0.00 | 0.00 | 72 | 1017.1 |
| 20260505124559 | 13 | 76 | 0.0 | 3.2 | 0.00 | 0.00 | 0.00 | 75 | 1017.1 |
| 20260505123105 | 12 | 0 | 0.0 | 1.6 | 0.00 | 0.00 | 0.00 | 79 | 1017.2 |
| 20260505121553 | 11 | 0 | 0.0 | 0.0 | 0.00 | 0.00 | 0.00 | 83 | 1017.0 |
| 20260505120108 | 10 | 0 | 1.6 | 4.8 | 0.00 | 0.00 | 0.00 | 88 | 1016.6 |
| 20260505114552 | 9 | 0 | 0.0 | 0.0 | 0.00 | 0.00 | 0.00 | 89 | 1016.4 |
| 20260505113055 | 8 | 0 | 0.0 | 3.2 | 0.00 | 0.00 | 0.00 | 90 | 1016.3 |
| 20260505111552 | 8 | 0 | 0.0 | 1.6 | 0.00 | 0.00 | 0.00 | 90 | 1016.2 |
| 20260505101550 | 8 | 117 | 0.0 | 3.2 | 0.00 | 0.00 | 0.00 | 88 | 1015.9 |
| 20260505100057 | 8 | 117 | 0.0 | 3.2 | 0.00 | 0.00 | 0.00 | 89 | 1015.9 |
| 20260505094555 | 8 | 0 | 0.0 | 6.4 | 0.00 | 0.00 | 0.00 | 89 | 1015.8 |
| 20260505093052 | 8 | 0 | 0.0 | 3.2 | 0.00 | 0.00 | 0.00 | 89 | 1015.8 |
| 20260505091549 | 8 | 0 | 0.0 | 4.8 | 0.00 | 0.00 | 0.00 | 88 | 1015.8 |
| 20260505090053 | 9 | 0 | 0.0 | 9.7 | 0.00 | 0.00 | 0.00 | 88 | 1015.7 |
| 20260505084551 | 9 | 0 | 0.0 | 11.3 | 0.00 | 0.00 | 0.00 | 89 | 1015.7 |
| 20260505083052 | 8 | 128 | 3.2 | 6.4 | 0.00 | 0.00 | 0.00 | 89 | 1015.8 |
| 20260505081553 | 9 | 0 | 0.0 | 0.0 | 0.00 | 0.00 | 0.00 | 89 | 1015.6 |
| 20260505080104 | 9 | 0 | 0.0 | 0.0 | 0.00 | 0.00 | 0.00 | 89 | 1015.5 |
| 20260505074552 | 9 | 0 | 0.0 | 0.0 | 0.00 | 0.00 | 0.00 | 88 | 1015.4 |
| 20260505073052 | 10 | 0 | 0.0 | 1.6 | 0.00 | 0.00 | 0.00 | 88 | 1015.4 |
| 20260505071555 | 10 | 0 | 0.0 | 1.6 | 0.00 | 0.00 | 0.00 | 88 | 1015.4 |
| 20260505070055 | 10 | 0 | 0.0 | 1.6 | 0.00 | 0.00 | 0.00 | 87 | 1015.5 |
| 20260505064550 | 10 | 0 | 0.0 | 1.6 | 0.00 | 0.00 | 0.00 | 87 | 1015.6 |
| 20260505063054 | 10 | 0 | 0.0 | 0.0 | 0.00 | 0.00 | 0.00 | 86 | 1015.8 |
| 20260505061558 | 10 | 0 | 0.0 | 0.0 | 0.00 | 0.00 | 0.00 | 86 | 1015.8 |
| 20260505060058 | 11 | 0 | 0.0 | 0.0 | 0.00 | 0.00 | 0.00 | 85 | 1015.8 |
| 20260505054554 | 11 | 0 | 0.0 | 0.0 | 0.00 | 0.00 | 0.00 | 84 | 1015.7 |
| 20260505053103 | 11 | 0 | 0.0 | 3.2 | 0.00 | 0.00 | 0.00 | 83 | 1015.8 |
| 20260505051553 | 11 | 0 | 0.0 | 3.2 | 0.00 | 0.00 | 0.00 | 82 | 1015.8 |
| 20260505041554 | 13 | 0 | 0.0 | 0.0 | 0.00 | 0.00 | 0.00 | 76 | 1015.7 |
| 20260505040105 | 13 | 0 | 0.0 | 0.0 | 0.00 | 0.00 | 0.00 | 73 | 1015.8 |
| 20260505034552 | 14 | 0 | 0.0 | 0.0 | 0.00 | 0.00 | 0.00 | 73 | 1015.8 |
| 20260505033049 | 15 | 0 | 0.0 | 0.0 | 0.00 | 0.00 | 0.00 | 68 | 1015.9 |
| 20260505031558 | 15 | 0 | 0.0 | 0.0 | 0.00 | 0.00 | 0.00 | 65 | 1015.8 |
| 20260505030100 | 16 | 0 | 0.0 | 0.0 | 0.00 | 0.00 | 0.00 | 61 | 1015.8 |
| 20260505024555 | 17 | 0 | 0.0 | 3.2 | 0.00 | 0.00 | 0.00 | 55 | 1015.9 |
| 20260505023056 | 17 | 182 | 1.6 | 4.8 | 0.00 | 0.00 | 0.00 | 56 | 1015.9 |
| 20260505021557 | 18 | 180 | 1.6 | 8.0 | 0.00 | 0.00 | 0.00 | 55 | 1015.6 |
| 20260505020056 | 18 | 195 | 1.6 | 4.8 | 0.00 | 0.00 | 0.00 | 55 | 1015.5 |
| 20260505014558 | 18 | 185 | 1.6 | 6.4 | 0.00 | 0.00 | 0.00 | 56 | 1015.4 |
| 20260505013051 | 18 | 0 | 1.6 | 4.8 | 0.00 | 0.00 | 0.00 | 59 | 1015.3 |
| 20260505011554 | 17 | 0 | 0.0 | 0.0 | 0.00 | 0.00 | 0.00 | 63 | 1015.2 |
| 20260505010058 | 18 | 0 | 0.0 | 0.0 | 0.00 | 0.00 | 0.00 | 61 | 1015.1 |
| 20260505004552 | 20 | 0 | 0.0 | 0.0 | 0.00 | 0.00 | 0.00 | 55 | 1014.9 |
| 20260505003050 | 20 | 0 | 0.0 | 1.6 | 0.00 | 0.00 | 0.00 | 52 | 1014.8 |
| 20260505001550 | 21 | 0 | 1.6 | 6.4 | 0.00 | 0.00 | 0.00 | 49 | 1014.8 |
| 20260505000100 | 21 | 167 | 0.0 | 4.8 | 0.00 | 0.00 | 0.00 | 47 | 1014.8 |
| 20260504234554 | 22 | 167 | 1.6 | 6.4 | 0.00 | 0.00 | 0.00 | 47 | 1014.6 |
| 20260504233053 | 22 | 165 | 0.0 | 8.0 | 0.00 | 0.00 | 0.00 | 46 | 1014.4 |
| 20260504231548 | 22 | 171 | 1.6 | 6.4 | 0.00 | 0.00 | 0.00 | 45 | 1014.4 |
| 20260504230052 | 22 | 169 | 3.2 | 9.7 | 0.00 | 0.00 | 0.00 | 45 | 1014.4 |
| 20260504224552 | 23 | 164 | 8.0 | 17.7 | 0.00 | 0.00 | 0.00 | 42 | 1014.3 |
| 20260504223056 | 23 | 156 | 1.6 | 16.1 | 0.00 | 0.00 | 0.00 | 42 | 1014.4 |
| 20260504221554 | 23 | 166 | 4.8 | 16.1 | 0.00 | 0.00 | 0.00 | 41 | 1014.4 |
| 20260504220110 | 24 | 150 | 3.2 | 11.3 | 0.00 | 0.00 | 0.00 | 39 | 1014.4 |
| 20260504214554 | 24 | 149 | 1.6 | 8.0 | 0.00 | 0.00 | 0.00 | 39 | 1014.5 |
| 20260504213059 | 23 | 157 | 3.2 | 11.3 | 0.00 | 0.00 | 0.00 | 41 | 1014.4 |